NOAA 16 DEB, 41068

Orbit data source: Space-Track

NOAA 16 DEB, 41068 is space debris in SSO originally from a launch on Thu, 21 Sep 2000 UTC launched from the Air Force Western Test Range (AFWTR). Debris objects in space refer to the collection of defunct objects orbiting the Earth. Examples of debris include non-operational satellites, rocket bodies, and fragments generated from explosions, collisions, or faulty payload assembly.

Loading next visibility...
Identifier
41068, 2000-055AB
Orbit
SSO
Country
Flag of USUS
Related business
Manufacturer
Unknown
Mission
Spacecraft
Bus & Motor
Unknown
Mass
Unknown
Launch date (UTC)
2000-09-21 (25 years ago)
Launch vehicle
Unknown
Launch site
Air Force Western Test Range (AFWTR)
Object type
Payload
Rocket body
Debris
Shape & HBR
Unknown
Radar Cross Section
Small (<0.1 m²)

Expand to show TLE details & history
Last TLE update: 20 hours ago

TLE from 20 hours ago
0 NOAA 16 DEB
1 41068U 00055AB  25242.16454455  .00003321  00000-0  93476-3 0  9999
2 41068  99.1331 195.8318 0142549 263.7052  94.7882 14.40805650510201
Epoch: 2025-08-30T03:56Z
TLE epoch observation values (Epoch: 2025-08-30T03:56:56.649Z)
Latitude
-0.00004°
Longitude
157.993°
Altitude
768.695 km
Speed
7.465 km/s
True Right ascension
13h 03m 19s
True Declination
0° 00' 00"
Sunlit
Object was in daylight at epoch
Visualization orbit readout
Latitude
Unknown
Longitude
Unknown
Altitude
Unknown
Speed
Unknown
Apparent Right ascension
Unknown
Apparent Declination
Unknown
Sunlit
N/A
Visualization observer readout
Local Sidereal Time
15:41:21
Azimuth
Unknown
Elevation
Unknown
Doppler factor
Unknown
Orbital elements
Apogee altitude
854.642 km
Perigee altitude
651.335 km
Semi-major axis
7,131.126 km
Eccentricity
0.01425
Inclination
99.1331°
RAAN
195.8318°
Arg. of periapsis
263.7052°
True anomaly
96.41335°
Mean anomaly
94.7882°
Eccentric anomaly
95.60105°
Mean motion
3.60418 °/min
Orbital period
99.88 mins
BSTAR
0.00093476
Loading maneuver chart data...
Computing Atmospheric mass density...
Loading historical data...
Loading historical data...
Loading historical data...
Loading historical data...
Loading historical data...
Loading historical data...
Loading historical data...

Documentation

Showing up to 5 results
|